| time (UTC) | temp F | wind direction | speed knots | gust knots | rain 1hr in | rain 24hr in | rain mn in | humidity % | barometer mb |
| 20260505021339 | 66 | 171 | 3.5 | 7.0 | 0.00 | 0.00 | 0.00 | 55 | 1008.3 |
| 20260505020319 | 66 | 201 | 2.6 | 6.1 | 0.00 | 0.00 | 0.00 | 54 | 1008.3 |
| 20260505015319 | 67 | 150 | 2.6 | 6.1 | 0.00 | 0.00 | 0.00 | 53 | 1008.2 |
| 20260505014320 | 68 | 184 | 3.5 | 8.7 | 0.00 | 0.00 | 0.00 | 51 | 1008.1 |
| 20260505013339 | 69 | 163 | 3.5 | 8.7 | 0.00 | 0.00 | 0.00 | 49 | 1008.0 |
| 20260505012353 | 69 | 176 | 5.2 | 8.7 | 0.00 | 0.00 | 0.00 | 49 | 1007.7 |
| 20260505011337 | 69 | 218 | 5.2 | 8.7 | 0.00 | 0.00 | 0.00 | 48 | 1007.8 |
| 20260505010333 | 70 | 159 | 4.3 | 7.8 | 0.00 | 0.00 | 0.00 | 47 | 1007.7 |
| 20260505005337 | 70 | 165 | 5.2 | 8.7 | 0.00 | 0.00 | 0.00 | 46 | 1007.4 |
| 20260505004317 | 70 | 160 | 4.3 | 10.4 | 0.00 | 0.00 | 0.00 | 46 | 1007.2 |
| 20260505003354 | 70 | 161 | 4.3 | 8.7 | 0.00 | 0.00 | 0.00 | 46 | 1007.1 |
| 20260505002338 | 70 | 168 | 4.3 | 10.4 | 0.00 | 0.00 | 0.00 | 44 | 1007.1 |
| 20260505001330 | 70 | 177 | 3.5 | 10.4 | 0.00 | 0.00 | 0.00 | 44 | 1007.0 |
| 20260505000319 | 71 | 156 | 5.2 | 10.4 | 0.00 | 0.00 | 0.00 | 44 | 1006.9 |
| 20260504235320 | 71 | 177 | 6.1 | 12.2 | 0.00 | 0.00 | 0.00 | 43 | 1006.8 |
| 20260504234336 | 72 | 184 | 4.3 | 11.3 | 0.00 | 0.00 | 0.00 | 42 | 1006.9 |
| 20260504233333 | 73 | 134 | 6.1 | 9.6 | 0.00 | 0.00 | 0.00 | 40 | 1006.7 |
| 20260504232336 | 73 | 165 | 5.2 | 11.3 | 0.00 | 0.00 | 0.00 | 40 | 1006.7 |
| 20260504231357 | 74 | 207 | 6.1 | 11.3 | 0.00 | 0.00 | 0.00 | 40 | 1006.7 |
| 20260504230321 | 74 | 190 | 3.5 | 13.0 | 0.00 | 0.00 | 0.00 | 40 | 1006.8 |
| 20260504225334 | 74 | 103 | 6.1 | 12.2 | 0.00 | 0.00 | 0.00 | 39 | 1006.7 |
| 20260504224348 | 75 | 223 | 6.1 | 12.2 | 0.00 | 0.00 | 0.00 | 38 | 1006.8 |
| 20260504223314 | 74 | 160 | 6.1 | 11.3 | 0.00 | 0.00 | 0.00 | 39 | 1006.8 |
| 20260504222315 | 74 | 166 | 7.0 | 14.8 | 0.00 | 0.00 | 0.00 | 38 | 1006.8 |
| 20260504221335 | 74 | 200 | 4.3 | 13.9 | 0.00 | 0.00 | 0.00 | 39 | 1006.8 |
| 20260504220315 | 75 | 171 | 5.2 | 10.4 | 0.00 | 0.00 | 0.00 | 38 | 1006.8 |
| 20260504215322 | 76 | 142 | 4.3 | 13.0 | 0.00 | 0.00 | 0.00 | 38 | 1006.8 |
| 20260504214335 | 75 | 153 | 4.3 | 10.4 | 0.00 | 0.00 | 0.00 | 38 | 1006.8 |
| 20260504213325 | 75 | 167 | 5.2 | 12.2 | 0.00 | 0.00 | 0.00 | 37 | 1006.8 |
| 20260504212332 | 76 | 194 | 4.3 | 10.4 | 0.00 | 0.00 | 0.00 | 38 | 1006.8 |
| 20260504211336 | 76 | 154 | 3.5 | 14.8 | 0.00 | 0.00 | 0.00 | 38 | 1006.8 |
| 20260504210329 | 77 | 145 | 7.0 | 13.9 | 0.00 | 0.00 | 0.00 | 34 | 1006.9 |
| 20260504205354 | 78 | 192 | 5.2 | 9.6 | 0.00 | 0.00 | 0.00 | 33 | 1006.7 |
| 20260504204339 | 77 | 243 | 5.2 | 13.0 | 0.00 | 0.00 | 0.00 | 36 | 1006.8 |
| 20260504203353 | 76 | 194 | 7.8 | 13.9 | 0.00 | 0.00 | 0.00 | 36 | 1006.9 |
| 20260504202339 | 75 | 202 | 6.1 | 9.6 | 0.00 | 0.00 | 0.00 | 36 | 1007.1 |
| 20260504201315 | 77 | 205 | 3.5 | 11.3 | 0.00 | 0.00 | 0.00 | 36 | 1007.1 |
| 20260504200317 | 76 | 179 | 6.1 | 13.0 | 0.00 | 0.00 | 0.00 | 38 | 1007.4 |
| 20260504195339 | 76 | 178 | 4.3 | 10.4 | 0.00 | 0.00 | 0.00 | 36 | 1007.6 |
| 20260504194314 | 76 | 211 | 5.2 | 11.3 | 0.00 | 0.00 | 0.00 | 36 | 1007.6 |
| 20260504193318 | 76 | 218 | 4.3 | 10.4 | 0.00 | 0.00 | 0.00 | 37 | 1008.0 |
| 20260504192317 | 75 | 154 | 6.1 | 11.3 | 0.00 | 0.00 | 0.00 | 36 | 1008.2 |
| 20260504191340 | 76 | 186 | 4.3 | 13.9 | 0.00 | 0.00 | 0.00 | 36 | 1008.3 |
| 20260504190338 | 75 | 215 | 4.3 | 9.6 | 0.00 | 0.00 | 0.00 | 38 | 1008.3 |
| 20260504185331 | 76 | 252 | 4.3 | 9.6 | 0.00 | 0.00 | 0.00 | 37 | 1008.5 |
| 20260504184314 | 75 | 166 | 6.1 | 11.3 | 0.00 | 0.00 | 0.00 | 39 | 1008.7 |
| 20260504183314 | 74 | 186 | 3.5 | 12.2 | 0.00 | 0.00 | 0.00 | 38 | 1008.8 |
| 20260504182332 | 76 | 188 | 6.1 | 13.0 | 0.00 | 0.00 | 0.00 | 39 | 1009.1 |
| 20260504181336 | 75 | 209 | 5.2 | 12.2 | 0.00 | 0.00 | 0.00 | 36 | 1009.2 |
| 20260504180337 | 75 | 154 | 7.0 | 13.0 | 0.00 | 0.00 | 0.00 | 37 | 1009.4 |
| 20260504175333 | 74 | 130 | 7.0 | 14.8 | 0.00 | 0.00 | 0.00 | 38 | 1009.5 |
| 20260504174338 | 74 | 138 | 4.3 | 9.6 | 0.00 | 0.00 | 0.00 | 41 | 1009.5 |
| 20260504173349 | 74 | 194 | 4.3 | 12.2 | 0.00 | 0.00 | 0.00 | 39 | 1009.9 |
| 20260504172329 | 73 | 196 | 6.1 | 12.2 | 0.00 | 0.00 | 0.00 | 39 | 1010.0 |
| 20260504171315 | 73 | 153 | 4.3 | 8.7 | 0.00 | 0.00 | 0.00 | 38 | 1010.2 |
| 20260504170333 | 73 | 237 | 5.2 | 9.6 | 0.00 | 0.00 | 0.00 | 39 | 1010.2 |
| 20260504160338 | 70 | 242 | 3.5 | 7.0 | 0.00 | 0.00 | 0.00 | 39 | 1011.1 |
| 20260504150333 | 68 | 207 | 4.3 | 12.2 | 0.00 | 0.00 | 0.00 | 43 | 1011.7 |
| 20260504141316 | 65 | 155 | 6.1 | 12.2 | 0.00 | 0.00 | 0.00 | 41 | 1012.0 |
| 20260504140318 | 65 | 208 | 5.2 | 9.6 | 0.00 | 0.00 | 0.00 | 41 | 1011.9 |
| 20260504130336 | 60 | 169 | 4.3 | 12.2 | 0.00 | 0.00 | 0.00 | 42 | 1012.0 |
| 20260504120315 | 56 | 157 | 4.3 | 8.7 | 0.00 | 0.00 | 0.00 | 48 | 1012.3 |
| 20260504110316 | 49 | 198 | 2.6 | 7.0 | 0.00 | 0.00 | 0.00 | 60 | 1012.7 |
| 20260504100315 | 44 | 196 | 0.0 | 1.7 | 0.00 | 0.00 | 0.00 | 77 | 1012.6 |
| 20260504081334 | 44 | 5 | 0.0 | 0.0 | 0.00 | 0.00 | 0.00 | 76 | 1012.9 |
| 20260504080349 | 44 | 5 | 0.0 | 0.9 | 0.00 | 0.00 | 0.00 | 76 | 1012.9 |
| 20260504070321 | 43 | 296 | 0.0 | 1.7 | 0.00 | 0.00 | 0.00 | 72 | 1013.2 |
| 20260504050332 | 41 | 161 | 1.7 | 4.3 | 0.00 | 0.00 | 0.00 | 75 | 1013.6 |
| 20260504045315 | 41 | 175 | 0.0 | 0.0 | 0.00 | 0.00 | 0.00 | 76 | 1013.7 |
| 20260504044318 | 41 | 175 | 0.0 | 3.5 | 0.00 | 0.00 | 0.00 | 75 | 1013.8 |
| 20260504043352 | 41 | 138 | 0.0 | 0.0 | 0.00 | 0.00 | 0.00 | 75 | 1013.7 |
| 20260504042336 | 41 | 138 | 0.0 | 0.0 | 0.00 | 0.00 | 0.00 | 73 | 1013.7 |
| 20260504041338 | 42 | 138 | 0.0 | 0.9 | 0.00 | 0.00 | 0.00 | 73 | 1013.6 |
| 20260504040317 | 42 | 138 | 0.0 | 0.0 | 0.00 | 0.00 | 0.00 | 74 | 1013.6 |
| 20260504035317 | 43 | 138 | 0.0 | 0.9 | 0.00 | 0.00 | 0.00 | 73 | 1013.4 |
| 20260504034316 | 43 | 138 | 0.0 | 1.7 | 0.00 | 0.00 | 0.00 | 74 | 1013.4 |
| 20260504033347 | 42 | 138 | 0.0 | 0.9 | 0.00 | 0.00 | 0.00 | 73 | 1013.4 |
| 20260504032321 | 43 | 138 | 0.0 | 0.9 | 0.00 | 0.00 | 0.00 | 73 | 1013.4 |
| 20260504031321 | 43 | 138 | 0.9 | 2.6 | 0.00 | 0.00 | 0.00 | 72 | 1013.4 |
| 20260504030322 | 44 | 12 | 0.9 | 3.5 | 0.00 | 0.00 | 0.00 | 71 | 1013.3 |
| 20260504025313 | 44 | 258 | 0.9 | 1.7 | 0.00 | 0.00 | 0.00 | 70 | 1013.4 |
| 20260504024316 | 44 | 181 | 0.9 | 2.6 | 0.00 | 0.00 | 0.00 | 69 | 1013.3 |
| 20260504023314 | 45 | 135 | 0.0 | 0.9 | 0.00 | 0.00 | 0.00 | 68 | 1013.2 |
| 20260504022337 | 45 | 135 | 0.0 | 1.7 | 0.00 | 0.00 | 0.00 | 68 | 1013.2 |